Regional Weather Roundup
Issued by NWS Jackson, KY

Home | Current Version | Previous Version | Graphics & Text | Print | Product List | Glossary On
Versions: 1 2 3 4 5 6 7 8 9 10 11 12 13 14 15 16 17 18 19 20 21 22 23 24 25 26 27 28 29 30 31 32 33 34 35 36 37 38 39 40 41 42 43 44 45 46 47 48 49 50
000
ASUS43 KJKL 231210
RWRJKL

EAST KENTUCKY HOURLY WEATHER ROUNDUP
NATIONAL WEATHER SERVICE JACKSON KY
800 AM EDT MON OCT 23 2017

NOTE: "FAIR" INDICATES FEW OR NO CLOUDS BELOW 12,000 FEET WITH
NO SIGNIFICANT WEATHER AND/OR OBSTRUCTIONS TO VISIBILITY.

* THESE REPORTS ARE NOT UNDER NWS QUALITY CONTROL AND MAY NOT
  REPORT WEATHER SUCH AS PRECIPITATION AND FOG.

KYZ079-080-083-085-087-088-110-112-115-119-120-231300
...EASTERN KENTUCKY...

CITY           SKY/WX    TMP DP  RH WIND       PRES   REMARKS
JACKSON        CLOUDY    65  56  72 VRB6      29.90F
6HR MIN TEMP:  64; 6HR MAX TEMP:  67; 6HR PCP: TRACE;

LONDON         LGT RAIN  64  60  87 SE5       29.86F
6HR MIN TEMP:  64; 6HR MAX TEMP:  68; 6HR PCP:  0.03;

SOMERSET*      DRIZZLE   61  59  94 CALM      29.84F
MONTICELLO*    LGT RAIN  65  60  84 VRB6      29.84F
6HR MIN TEMP:  62; 6HR MAX TEMP:  68; 6HR PCP: TRACE;

WILLIAMSBURG*  PTSUNNY   64  63  94 SE6       29.85F
MIDDLESBORO*   LGT RAIN  67  60  80 CALM      29.90F
6HR MIN TEMP:  61; 6HR MAX TEMP:  69;

HARLAN APT*    CLOUDY    66  57  72 E10G20    29.92F
PIKE CO APT*   RAIN      65  59  80 SE17G29   29.96F
BIG SANDY APT* LGT RAIN  65  59  81 E9        29.95F
6HR MIN TEMP:  65; 6HR MAX TEMP:  68;

MOREHEAD APT*  CLOUDY    64  55  72 VRB5      29.90F
$$

KYZ035-036-041-042-044-050-067-078-099-231300
...CENTRAL KENTUCKY...

CITY           SKY/WX    TMP DP  RH WIND       PRES   REMARKS
MT STERLING*   RAIN      64  55  72 SE6       29.89F
FLEMING/MASON* DRIZZLE   64  56  75 SE10      29.89F
DANVILLE*      DRIZZLE   61  59  94 SE5       29.83F
LEXINGTON      LGT RAIN  64  58  80 E13       29.82F
6HR MIN TEMP:  64; 6HR MAX TEMP:  67; 6HR PCP:  0.03;

FRANKFORT      CLOUDY    63  58  83 SE6       29.81F
6HR MIN TEMP:  63; 6HR MAX TEMP:  68; 6HR PCP:  0.04;

LOUISVILLE     RAIN      62  60  93 SE6       29.83R FOG
6HR MIN TEMP:  62; 6HR MAX TEMP:  69; 6HR PCP:  0.51;

LEBANON*       HVY RAIN  59  57  94 W16G22    29.88R VSB 3/4
GLASGOW*       RAIN      60  60 100 CALM      29.83F
BOWLING GREEN  RAIN      63  63 100 E9        29.79F FOG
6HR MIN TEMP:  63; 6HR MAX TEMP:  71; 6HR PCP:  1.07;

$$

KYZ091>093-OHZ055-061-077-WVZ005-015-034-035-042-231300
...SOUTHERN OHIO/WEST VIRGINIA...

CITY           SKY/WX    TMP DP  RH WIND       PRES   REMARKS
COVINGTON      LGT RAIN  63  58  83 SE10      29.84F
COLUMBUS       CLOUDY    64  53  67 SE9       29.93F
DAYTON         CLOUDY    62  55  77 SE12      29.88F
WILMINGTON     MOCLDY    63  55  75 SE12      29.88F
HUNTINGTON     CLOUDY    63  54  72 SE6       29.93F
CHARLESTON     LGT RAIN  68  56  65 SE10G22   29.99F
PINEVILLE*     RAIN      63  59  87 MISG      30.11R
BECKLEY        LGT RAIN  59  55  87 SE13G23   30.08F
BLUEFIELD      RAIN      58  55  90 SE9G22    30.11F FOG
LOGAN CO APT*  LGT RAIN  64  59  82 S10G21    30.01S
$$

VAZ002-007-008-TNZ017-027-036-066-071-231300
...SOUTHWEST VIRGINIA/EAST TENNESSEE...

CITY           SKY/WX    TMP DP  RH WIND       PRES   REMARKS
WISE*          LGT RAIN  61  61 100 SE6G16    30.02F
JONESVILLE*    LGT RAIN  64  61  88 E6        29.96F
ABINGDON*      LGT RAIN  62  60  94 E13       30.02F
BRISTOL        LGT RAIN  63  63 100 E5        29.98F
MORRISTOWN*    PTSUNNY   68  61  77 E10G16    29.91F
SEVIERVILLE*   CLOUDY    68  61  77 CALM      29.88S
KNOXVILLE      LGT RAIN  63  63 100 NE7       29.86F
LAFOLLETTE*    CLOUDY    59  59 100 CALM      29.91F FOG
OAK RIDGE      LGT RAIN  61  61 100 E3        29.88F
CROSSVILLE     RAIN      64  63  96 S8        29.85F FOG
NASHVILLE      CLOUDY    62  61  96 S5        29.86R
$$

...KEY TO REMARKS...
VSB - VISIBILITY IN MILES
WCI - WIND CHILL INDEX
HX  - HEAT INDEX

$$



USA.gov is the U.S. government's official web portal to all federal, state and local government web resources and services.